User: anonymous   Login
Location: Unspecified
(0.0000°N, 0.0000°E)
Time: 08:57:48
(UTC+00:00)
Language:

STARLINK-35767 - Orbit

View from above orbital plane
View from above orbital plane
View from above satellite
View from above satellite

Ground track
Ground track

The orbit is defined by the following mean orbital elements,

1 67058U          26144.78396708 +.00000000 +00000-0 +53451-3 0 00005
2 67058  43.0009 328.6071 0001524 263.0208  97.0470 15.27593181    03
Epoch (UTC): 24 May 2026 18:48:54
Eccentricity: 0.0001524
inclination: 43.0009°
perigee height: 482 km
apogee height: 484 km
right ascension of ascending node: 328.6071°
argument of perigee: 263.0208°
revolutions per day: 15.27593181
mean anomaly at epoch: 97.0470°

The dashed part of the orbit path shows where the satellite is in the earth's shadow,  

DLR